This is the latest recevied weather packets stored in our database for station/object KC5DAQ-22. If no packets are shown the sender has not sent any weather packets the latest 10 day(s).
| Time | Temp. | Humidity | Pressure | Rain* | Wind** | Luminosity | Snow |
|---|---|---|---|---|---|---|---|
| 1777636203 | 17.78° C | 96% | 1009.2 hPa | 1.27 mm | - | 0 W/m² | - |
| 1777636143 | 17.78° C | 96% | 1009.1 hPa | 1.27 mm | - | 0 W/m² | - |
| 1777636082 | 17.78° C | 96% | 1008.9 hPa | 1.27 mm | - | 0 W/m² | - |
| 1777636022 | 17.78° C | 96% | 1008.9 hPa | 1.27 mm | - | 0 W/m² | - |
| 1777635963 | 17.78° C | 96% | 1008.9 hPa | 1.27 mm | - | 0 W/m² | - |
| 1777635903 | 17.78° C | 96% | 1008.8 hPa | 1.27 mm | - | 0 W/m² | - |
| 1777635843 | 17.78° C | 96% | 1008.7 hPa | 1.27 mm | - | 0 W/m² | - |
| 1777635783 | 17.78° C | 96% | 1008.7 hPa | 1.27 mm | - | 0 W/m² | - |
| 1777635724 | 17.78° C | 96% | 1008.8 hPa | 1.27 mm | - | 0 W/m² | - |
| 1777635662 | 17.78° C | 96% | 1008.8 hPa | 1.27 mm | - | 0 W/m² | - |
| 1777635602 | 17.78° C | 96% | 1008.7 hPa | 1.27 mm | - | 0 W/m² | - |
| 1777635543 | 17.78° C | 96% | 1008.8 hPa | 1.52 mm | - | 0 W/m² | - |
| 1777635483 | 17.78° C | 96% | 1008.7 hPa | 1.52 mm | - | 0 W/m² | - |
| 1777635423 | 17.78° C | 96% | 1008.6 hPa | 1.78 mm | - | 0 W/m² | - |
| 1777635362 | 17.78° C | 96% | 1008.6 hPa | 1.78 mm | - | 0 W/m² | - |
| 1777635304 | 17.78° C | 96% | 1008.6 hPa | 1.78 mm | - | 0 W/m² | - |
| 1777635244 | 17.78° C | 96% | 1008.6 hPa | 2.03 mm | - | 0 W/m² | - |
| 1777635183 | 17.78° C | 96% | 1008.6 hPa | 2.29 mm | - | 0 W/m² | - |
| 1777635123 | 17.78° C | 96% | 1008.6 hPa | 2.54 mm | - | 0 W/m² | - |
| 1777635064 | 17.78° C | 96% | 1008.6 hPa | 3.05 mm | - | 0 W/m² | - |
| 1777635003 | 17.78° C | 96% | 1008.7 hPa | 3.3 mm | - | 0 W/m² | - |
| 1777634943 | 17.78° C | 96% | 1008.8 hPa | 3.56 mm | - | 0 W/m² | - |
| 1777634882 | 17.78° C | 96% | 1008.9 hPa | 3.56 mm | - | 0 W/m² | - |
| 1777634823 | 17.78° C | 96% | 1008.9 hPa | 3.81 mm | - | 0 W/m² | - |
| 1777634763 | 17.78° C | 96% | 1008.9 hPa | 3.81 mm | - | 0 W/m² | - |
* Rain latest hour (hover to see other rain measurements)
** Current wind speed in m/s (hover to see current wind gust speed)